This demonstration page uses our WeatherBlox Daily Observations layout. Learn more.

Left ArrowRight Arrow

Hourly Observations for December 2, 2021

Temp ( °F °C ) Dew Point ( °F °C ) Humidity (%) Winds ( mph kmh ) Pressure ( in mb ) Visibility ( mi km ) Precip ( " mm )
12:51 am 00:51 Clear 44 6.7 27 -2.8 51 51 E 3 6 30.11 1020 10 16 0.00 0.00
1:51 am 01:51 Clear 42 5.6 25 -3.9 51 51 Calm 30.12 1020 10 16 0.00 0.00
2:51 am 02:51 Clear 40 4.4 25 -3.9 55 55 Calm 30.12 1020 10 16 0.00 0.00
3:51 am 03:51 Clear 41 5 26 -3.3 55 55 W 3 6 30.11 1020 10 16 0.00 0.00
4:51 am 04:51 Clear 40 4.4 27 -2.8 60 60 N 3 6 30.12 1020 10 16 0.00 0.00
5:51 am 05:51 Clear 40 4.4 26 -3.3 58 58 Calm 30.14 1021 10 16 0.00 0.00
6:51 am 06:51 Clear 38 3.3 25 -3.9 60 60 ESE 3 6 30.17 1022 10 16 0.00 0.00
7:51 am 07:51 Sunny 44 6.7 28 -2.2 53 53 E 5 7 30.18 1022 10 16 0.00 0.00
8:51 am 08:51 Sunny 50 10 30 -1.1 46 46 SE 7 11 30.19 1022 10 16 0.00 0.00
9:51 am 09:51 Sunny 59 15 31 -0.6 35 35 SE 9 15 30.18 1022 10 16 0.00 0.00
10:51 am 10:51 Sunny 65 18.3 31 -0.6 28 28 SSE 7 11 30.16 1021 10 16 0.00 0.00
11:51 am 11:51 Sunny 67 19.4 32 0 27 27 VRB 3 6 30.11 1020 10 16 0.00 0.00
12:51 pm 12:51 Sunny 71 21.7 32 0 24 24 E 3 6 30.06 1018 10 16 0.00 0.00
1:51 pm 13:51 Sunny 73 22.8 32 0 22 22 VRB 3 6 30.03 1017 10 16 0.00 0.00
2:51 pm 14:51 Sunny 73 22.8 34 1.1 24 24 Calm 30.01 1016 10 16 0.00 0.00
3:51 pm 15:51 Sunny 74 23.3 36 2.2 25 25 Calm 29.99 1016 10 16 0.00 0.00
4:51 pm 16:51 Sunny 72 22.2 37 2.8 28 28 Calm 30.00 1016 10 16 0.00 0.00
5:51 pm 17:51 Clear 64 17.8 35 1.7 34 34 WNW 3 6 30.02 1017 10 16 0.00 0.00
6:51 pm 18:51 Clear 59 15 34 1.1 39 39 N 7 11 30.04 1017 10 16 0.00 0.00
7:51 pm 19:51 Clear 57 13.9 34 1.1 42 42 NNE 6 9 30.04 1017 10 16 0.00 0.00
8:51 pm 20:51 Clear 53 11.7 33 0.6 47 47 E 6 9 30.05 1018 10 16 0.00 0.00
9:51 pm 21:51 Clear 52 11.1 33 0.6 49 49 ESE 3 6 30.04 1017 10 16 0.00 0.00
10:51 pm 22:51 Clear 48 8.9 31 -0.6 52 52 Calm 30.04 1017 10 16 0.00 0.00
11:51 pm 23:51 Clear 46 7.8 32 0 58 58 Calm 30.04 1017 10 16 0.00 0.00

Powered by AerisWeather